Total_Precipitation_Accumulation
0.22 0.37 0.93 1.25 1.40 1.27 1.17 1.05 0.95 0.92 0.85 0.86 0.91 0.89 0.80 0.77 0.75 0.73 0.78 0.83 0.91 1.06 1.21 1.24 1.29 1.33 1.26 1.04 0.81 0.63 0.57 0.55 0.49 0.46 0.46 0.55 0.64 0.68 0.61 0.61 0.57 0.66 0.98
0.25 0.40 0.85 1.23 1.40 1.35 1.24 1.11 0.97 0.91 0.85 0.90 0.95 1.03 0.99 0.89 0.86 0.82 0.87 0.95 1.11 1.27 1.29 1.26 1.22 1.24 1.15 0.95 0.74 0.55 0.43 0.34 0.25 0.18 0.17 0.26 0.47 0.65 0.61 0.57 0.60 0.85 0.98
0.29 0.42 0.76 1.18 1.38 1.41 1.34 1.18 1.05 1.01 0.94 0.98 1.06 1.12 1.13 1.09 1.04 1.00 1.05 1.07 1.19 1.34 1.25 1.22 1.12 1.09 1.01 0.85 0.67 0.55 0.41 0.32 0.22 0.15 0.17 0.30 0.51 0.78 0.71 0.65 0.79 0.95 0.94
0.33 0.46 0.73 1.15 1.42 1.50 1.48 1.38 1.24 1.21 1.14 1.11 1.19 1.24 1.23 1.26 1.22 1.17 1.19 1.17 1.16 1.24 1.14 1.03 0.88 0.81 0.73 0.66 0.60 0.51 0.40 0.31 0.22 0.19 0.26 0.36 0.52 0.97 0.97 0.93 1.01 0.98 0.93
0.48 0.61 0.90 1.27 1.50 1.61 1.57 1.55 1.51 1.44 1.39 1.34 1.31 1.34 1.38 1.37 1.37 1.27 1.20 1.18 1.13 1.15 1.02 0.90 0.74 0.61 0.56 0.52 0.50 0.46 0.34 0.26 0.20 0.21 0.28 0.41 0.65 1.23 1.09 1.00 0.98 0.90 0.88
0.64 0.78 1.10 1.42 1.63 1.71 1.64 1.62 1.64 1.62 1.59 1.54 1.43 1.39 1.45 1.47 1.39 1.26 1.16 1.09 0.98 0.97 0.95 0.83 0.68 0.58 0.51 0.50 0.47 0.42 0.33 0.23 0.20 0.21 0.29 0.41 0.62 1.15 1.01 0.88 0.87 0.91 0.92
0.87 1.01 1.28 1.66 1.92 1.96 1.84 1.79 1.79 1.78 1.78 1.77 1.64 1.53 1.58 1.64 1.55 1.32 1.17 1.03 0.89 0.87 0.84 0.77 0.65 0.58 0.52 0.49 0.48 0.37 0.28 0.22 0.21 0.26 0.30 0.43 0.72 1.14 1.06 0.97 0.97 0.96 1.03
1.10 1.26 1.54 1.93 2.11 2.22 2.12 2.02 2.02 2.00 1.91 1.88 1.87 1.81 1.76 1.78 1.71 1.49 1.21 1.06 0.98 0.93 0.88 0.82 0.72 0.62 0.54 0.47 0.43 0.35 0.27 0.20 0.21 0.24 0.28 0.38 0.73 1.13 1.10 1.02 0.99 0.97 1.00
1.45 1.64 1.81 2.07 2.25 2.50 2.37 2.17 2.19 2.17 2.05 2.00 2.01 1.97 1.88 1.87 1.74 1.54 1.29 1.14 1.10 1.05 0.97 0.89 0.78 0.69 0.61 0.51 0.43 0.34 0.28 0.21 0.18 0.23 0.23 0.36 0.71 1.14 1.15 1.09 1.06 1.01 0.95
1.84 2.04 2.16 2.31 2.41 2.63 2.62 2.39 2.25 2.14 2.07 2.09 2.03 1.86 1.61 1.62 1.63 1.53 1.25 1.19 1.16 1.09 1.07 0.98 0.82 0.74 0.64 0.52 0.41 0.33 0.30 0.28 0.23 0.23 0.27 0.38 0.73 1.11 1.15 1.15 1.12 1.05 1.00
2.32 2.42 2.50 2.52 2.53 2.66 2.76 2.59 2.52 2.36 2.29 2.23 2.10 1.81 1.66 1.71 1.64 1.49 1.22 1.09 1.16 1.14 1.16 1.17 1.01 0.84 0.68 0.57 0.44 0.31 0.30 0.33 0.30 0.30 0.32 0.50 0.81 1.08 1.11 1.09 1.05 1.00 0.90
2.43 2.55 2.69 2.68 2.70 2.79 2.83 2.79 2.79 2.61 2.45 2.32 2.10 1.94 1.88 1.79 1.76 1.56 1.44 1.19 1.20 1.21 1.18 1.22 1.07 0.95 0.74 0.56 0.47 0.39 0.34 0.34 0.36 0.37 0.39 0.58 0.91 1.08 1.05 0.99 0.94 0.93 0.90
2.54 2.69 2.85 2.83 2.93 2.97 2.96 2.86 2.79 2.65 2.65 2.54 2.35 2.10 2.03 1.98 1.90 1.86 1.64 1.45 1.38 1.27 1.27 1.12 1.01 0.89 0.74 0.62 0.55 0.45 0.39 0.39 0.39 0.42 0.47 0.60 0.88 1.04 1.07 1.04 0.99 0.91 0.96
2.78 2.94 3.01 3.03 3.13 3.18 3.13 2.97 2.78 2.55 2.51 2.53 2.42 2.36 2.22 2.10 1.96 1.81 1.61 1.43 1.35 1.23 1.19 1.07 0.96 0.85 0.73 0.67 0.65 0.58 0.49 0.43 0.39 0.43 0.48 0.53 0.70 0.97 1.10 1.11 1.12 1.10 1.10
3.07 3.14 3.24 3.25 3.23 3.23 3.31 3.26 2.95 2.61 2.37 2.40 2.43 2.44 2.34 2.11 1.95 1.86 1.67 1.60 1.43 1.28 1.25 1.16 1.03 0.93 0.83 0.78 0.73 0.65 0.59 0.52 0.47 0.49 0.49 0.50 0.56 0.81 1.11 1.18 1.22 1.32 1.36
3.29 3.46 3.61 3.53 3.43 3.26 3.21 3.27 3.13 2.89 2.62 2.50 2.44 2.42 2.52 2.33 2.12 2.09 1.85 1.79 1.66 1.53 1.44 1.35 1.21 1.16 1.06 0.97 0.87 0.77 0.70 0.64 0.61 0.63 0.61 0.57 0.55 0.67 0.96 1.24 1.47 1.56 1.61
3.36 3.65 3.83 3.88 3.73 3.44 3.26 3.32 3.22 3.05 2.93 2.76 2.44 2.39 2.52 2.55 2.44 2.35 2.10 1.93 1.84 1.78 1.78 1.68 1.52 1.40 1.30 1.16 1.04 0.99 0.87 0.75 0.69 0.68 0.65 0.60 0.56 0.60 0.77 1.08 1.40 1.56 1.66
3.45 3.67 3.83 3.97 4.00 3.75 3.43 3.38 3.38 3.21 3.06 2.95 2.70 2.50 2.47 2.58 2.64 2.61 2.29 2.05 1.92 1.91 1.87 1.77 1.65 1.52 1.32 1.24 1.20 1.13 1.01 0.91 0.83 0.77 0.70 0.63 0.57 0.54 0.61 0.74 0.97 1.28 1.49
3.29 3.57 3.89 3.94 3.96 3.92 3.76 3.66 3.60 3.53 3.36 3.18 2.91 2.66 2.61 2.65 2.76 2.84 2.47 2.17 2.09 2.09 2.02 1.94 1.80 1.70 1.47 1.31 1.26 1.25 1.17 1.05 0.97 0.91 0.81 0.68 0.56 0.51 0.51 0.54 0.59 0.78 1.11
3.12 3.45 3.67 4.01 4.05 4.18 4.23 4.08 3.96 3.91 3.75 3.49 3.14 2.84 2.73 2.70 2.80 3.00 2.77 2.46 2.34 2.27 2.18 2.05 1.90 1.86 1.78 1.64 1.49 1.40 1.30 1.16 1.07 0.98 0.88 0.78 0.66 0.55 0.51 0.49 0.51 0.57 0.73
2.91 3.26 3.42 3.67 3.97 4.13 4.15 3.94 3.75 3.65 3.78 3.76 3.44 3.15 3.09 2.93 2.81 2.97 2.96 2.77 2.55 2.41 2.27 2.17 2.09 2.01 1.97 1.98 1.94 1.76 1.59 1.39 1.19 1.05 0.96 0.88 0.80 0.71 0.67 0.62 0.61 0.62 0.66
2.62 2.88 3.20 3.32 3.67 3.81 3.73 3.74 3.67 3.66 3.73 3.79 3.74 3.55 3.42 3.29 3.07 2.95 2.97 2.94 2.78 2.60 2.47 2.38 2.32 2.29 2.16 2.09 2.06 2.07 2.00 1.91 1.52 1.18 1.08 1.02 0.94 0.90 0.86 0.80 0.74 0.72 0.74
2.30 2.68 2.86 3.02 3.28 3.60 3.74 3.96 4.11 4.11 3.94 3.79 3.69 3.71 3.64 3.60 3.44 3.14 2.98 3.02 3.01 2.85 2.64 2.54 2.47 2.50 2.55 2.46 2.23 2.32 2.20 1.90 1.60 1.36 1.17 1.08 1.02 1.00 0.96 0.92 0.87 0.84 0.84
1.91 2.38 2.77 3.02 3.22 3.41 3.81 3.94 3.88 3.73 3.50 3.27 3.36 3.48 3.59 3.64 3.64 3.41 3.24 3.22 3.14 3.01 2.89 2.84 2.73 2.69 2.75 2.78 2.65 2.38 2.15 1.83 1.70 1.55 1.31 1.16 1.10 1.03 1.01 1.01 0.96 0.90 0.88
1.67 2.07 2.52 2.82 3.21 3.48 3.63 3.76 3.88 3.66 3.38 3.30 3.30 3.37 3.35 3.39 3.50 3.52 3.40 3.42 3.34 3.21 3.09 3.07 3.02 2.96 2.90 2.86 2.76 2.62 2.48 2.17 1.85 1.73 1.54 1.33 1.30 1.19 1.06 1.00 0.99 1.00 1.02
1.56 1.80 2.22 2.53 2.75 3.11 3.46 3.53 3.62 3.61 3.53 3.45 3.26 3.20 3.25 3.27 3.33 3.41 3.46 3.43 3.40 3.37 3.27 3.18 3.11 3.06 2.98 2.86 2.79 2.64 2.57 2.47 2.21 2.05 1.84 1.57 1.54 1.45 1.29 1.20 1.13 1.07 1.08